Theta_e
342 337 334 328 328 327 325 323 324 327 326 327 328 328 328 329 330 329 329 340 340 337 333 332 333 333 335 340 344 349 350 351 349 349 350 350 349 349 349 349 347 346 345
338 334 328 328 327 326 325 324 324 325 324 324 324 327 328 328 329 330 328 330 343 340 336 333 333 333 333 336 340 345 348 350 350 351 351 351 349 349 349 349 348 347 346
337 334 328 327 327 328 326 325 324 325 322 323 325 324 325 327 327 328 329 329 331 340 340 338 336 334 334 333 336 341 345 347 348 349 349 350 349 348 348 349 349 348 346
333 333 328 327 328 328 325 323 322 320 321 320 321 322 324 326 327 328 329 329 328 328 336 340 340 339 336 333 333 338 342 344 346 348 347 347 348 348 348 347 348 348 346
330 331 329 328 330 327 324 322 321 321 319 320 320 322 324 323 325 324 329 329 329 327 326 330 334 336 338 334 332 335 341 343 343 344 347 346 346 348 348 348 347 346 345
331 331 329 331 328 324 322 322 324 321 319 319 320 321 322 324 325 324 325 325 326 325 325 329 326 326 337 337 335 335 337 339 342 341 343 344 346 346 348 348 347 346 345
331 333 329 330 329 325 326 327 321 320 316 318 315 318 319 323 325 324 326 325 324 324 326 327 327 330 330 338 337 337 338 337 338 341 341 341 341 342 344 347 347 346 344
333 331 330 328 329 322 326 325 323 316 316 317 313 313 310 315 319 323 326 325 324 323 322 326 331 333 333 336 334 334 334 336 337 339 341 339 339 341 342 343 345 345 345
331 330 328 326 325 322 317 321 319 318 312 314 317 314 309 308 313 319 321 320 321 320 324 328 331 331 332 332 333 333 335 336 336 338 340 341 339 338 340 341 340 345 345
329 328 326 323 322 319 318 318 317 316 315 311 312 313 316 313 307 306 314 317 320 321 325 324 330 331 332 333 331 331 332 332 334 335 337 340 341 340 338 340 335 334 343
327 323 323 321 320 318 320 320 319 317 316 315 312 311 312 313 314 311 305 309 316 318 322 325 327 329 330 333 335 329 329 329 330 331 334 336 337 340 341 340 335 334 333
322 323 320 321 321 320 319 317 318 317 315 316 315 315 310 308 308 307 306 307 307 312 319 319 327 329 330 333 330 328 328 327 327 328 330 333 336 339 341 338 332 333 334
320 324 322 320 318 319 318 317 316 315 316 315 314 313 314 310 310 307 305 305 307 308 311 316 325 328 330 333 330 327 326 325 324 325 325 327 332 337 340 339 338 336 335
319 322 320 319 319 318 316 317 315 314 316 315 313 313 312 310 312 311 311 305 303 306 308 313 323 323 326 325 324 323 322 323 322 322 322 323 324 328 330 332 335 336 335
319 319 320 319 317 318 315 314 313 314 315 314 313 313 313 312 314 311 310 309 305 300 304 310 315 318 318 318 318 317 317 320 320 319 318 319 321 321 322 323 324 325 326
319 319 319 317 317 314 313 314 314 314 313 314 313 312 312 311 313 312 311 310 310 306 302 310 313 313 316 315 316 313 314 316 316 316 316 316 316 317 318 319 319 320 320
318 317 316 315 310 312 315 314 314 313 312 313 314 312 313 313 310 310 310 310 308 308 304 307 310 310 310 308 308 309 311 311 312 314 314 313 312 312 313 314 314 316 316
318 316 315 310 312 313 314 312 311 311 312 311 312 312 312 314 313 314 311 309 308 310 308 304 305 305 305 307 307 306 307 309 309 312 311 311 310 310 310 310 310 311 311
315 314 311 309 309 312 312 313 312 312 312 312 312 312 312 312 311 312 312 310 310 310 309 304 302 305 305 306 305 306 306 307 308 311 310 309 309 309 308 308 308 307 306
311 309 309 309 311 313 313 313 312 313 311 312 312 312 313 311 310 311 312 311 310 308 304 303 302 302 303 304 304 302 302 305 304 306 308 307 307 308 308 307 307 306 304
311 311 309 310 313 313 310 311 311 311 308 308 309 310 311 313 312 314 314 310 309 304 303 302 300 299 299 300 301 304 303 303 304 305 304 306 307 307 306 306 307 305 303
311 310 311 311 312 311 304 304 306 311 310 310 309 311 316 316 315 313 312 312 310 307 303 301 300 295 297 298 300 300 300 299 297 307 306 305 307 304 304 303 303 302 302
312 311 312 313 312 312 301 301 304 311 310 310 309 311 310 312 313 313 310 310 308 307 306 303 297 297 297 299 300 299 299 302 303 305 306 303 305 302 303 302 302 302 301
309 313 314 310 313 310 301 301 303 314 316 316 313 314 310 308 308 307 307 306 306 306 305 304 301 300 300 301 303 307 311 310 308 306 309 300 304 302 303 302 301 301 301
312 313 313 314 313 313 299 299 303 315 318 317 316 313 312 307 303 304 306 304 302 302 304 303 301 300 299 300 305 310 306 304 301 302 306 301 302 302 303 302 301 299 299
314 315 313 314 309 313 299 299 301 315 317 316 316 312 303 306 302 303 307 304 301 301 300 300 301 301 303 307 307 315 312 305 302 300 307 301 299 299 296 300 300 301 299
Wind_Speed
6 7 7 8 9 10 10 11 11 10 13 15 14 15 16 14 14 8 8 5 12 11 8 8 10 10 8 7 9 7 9 11 13 17 17 18 18 18 18 18 17 16 16
3 6 8 8 8 8 10 10 11 10 11 13 15 15 15 13 14 12 11 11 15 12 13 13 13 11 11 10 9 11 9 11 13 13 17 18 19 19 19 19 19 18 17
4 6 8 8 8 9 13 11 11 11 11 12 14 14 14 15 13 13 10 10 8 13 15 16 15 14 13 13 11 13 13 9 12 15 14 18 19 19 20 21 21 21 20
4 6 8 9 9 9 11 10 11 11 12 13 12 12 12 13 15 12 10 9 10 10 7 15 14 15 12 14 14 15 14 11 10 13 13 15 18 18 20 22 22 21 21
7 6 9 10 9 9 10 10 9 12 12 12 13 12 11 11 12 12 8 5 11 10 9 15 16 16 14 15 16 17 15 12 10 10 14 15 16 18 19 20 22 22 21
9 8 9 10 9 10 11 10 12 11 11 13 12 13 11 13 11 10 11 9 8 11 11 11 11 12 15 20 16 18 17 13 10 9 7 10 14 16 16 18 20 21 22
9 9 9 9 10 11 11 11 12 11 11 11 12 11 12 13 11 9 8 6 8 10 8 7 7 9 8 19 15 15 14 12 11 11 9 9 9 10 11 16 17 19 22
8 10 10 10 10 11 11 11 5 9 8 7 9 9 11 9 9 3 3 3 4 6 9 8 10 6 8 2 6 11 9 10 13 13 12 12 13 13 10 8 12 18 20
10 9 10 10 10 10 11 11 9 11 10 10 10 5 6 5 10 5 2 3 3 5 6 6 10 7 6 6 2 4 10 7 9 13 12 13 14 16 14 7 1 8 17
9 9 9 10 10 8 10 9 8 8 8 8 8 8 9 7 6 8 6 5 3 6 7 6 6 7 5 5 6 7 10 9 9 9 10 12 15 17 17 13 8 5 7
8 11 9 10 8 7 8 10 10 8 8 8 6 5 5 5 7 6 8 6 4 6 4 8 7 6 7 3 1 8 9 9 10 10 9 10 15 18 17 16 13 6 0
9 10 10 8 8 9 10 10 11 9 9 9 7 7 4 3 5 3 4 8 9 10 7 5 7 6 6 5 5 9 10 10 11 12 12 11 10 16 17 15 11 9 1
9 8 9 9 9 7 12 11 10 9 10 8 9 7 5 5 3 3 5 9 8 6 10 7 5 6 6 5 4 9 11 14 14 14 17 22 19 11 14 13 11 13 4
10 10 10 9 10 11 10 9 7 8 9 7 9 6 5 5 6 6 8 4 4 6 5 11 5 6 6 5 12 17 10 17 18 18 18 24 29 27 25 22 6 13 24
9 12 11 11 10 10 10 9 8 9 7 7 7 6 6 6 6 5 4 4 3 2 6 7 3 6 4 8 13 12 13 24 23 23 24 25 25 28 30 30 26 26 23
9 12 11 10 10 9 11 9 9 8 7 6 5 7 7 5 5 4 4 3 4 4 1 5 3 4 7 8 13 12 14 23 27 28 30 29 29 29 28 27 26 27 24
11 11 9 9 8 11 10 9 9 8 8 8 8 7 8 7 5 4 4 4 4 4 3 3 4 5 10 11 9 9 10 11 13 27 29 29 27 28 29 28 27 26 23
12 10 9 9 11 10 9 8 8 8 9 10 8 6 9 6 7 7 4 7 5 4 2 4 5 2 9 9 9 10 10 10 11 23 26 27 25 25 25 25 25 25 22
11 10 10 9 10 11 9 7 8 8 6 6 5 7 5 5 4 4 6 4 4 3 4 6 2 5 6 6 8 9 11 11 10 22 23 26 25 23 24 23 23 25 22
10 8 7 8 11 9 7 7 7 7 7 9 9 9 9 3 5 5 4 7 6 6 9 8 6 7 5 6 6 7 11 10 9 10 18 20 21 24 22 22 22 23 22
8 11 6 9 8 5 6 9 9 6 5 6 7 8 8 9 9 5 5 6 9 9 9 8 6 7 4 3 6 4 10 10 8 7 7 8 8 11 13 19 21 21 20
12 6 6 7 4 3 7 9 8 6 6 6 7 8 11 9 7 7 8 13 14 12 10 8 7 9 7 5 4 8 7 8 9 3 8 11 10 11 11 10 18 18 16
10 10 6 7 5 6 9 9 10 3 4 4 6 7 8 8 13 13 16 16 14 13 13 13 14 9 9 4 4 4 3 4 9 9 9 11 11 12 10 10 15 15 12
7 7 7 5 6 8 9 9 11 7 1 8 5 10 10 10 11 13 13 13 13 12 10 8 12 10 9 7 5 5 10 9 9 9 8 11 10 11 10 8 12 10 9
5 5 7 9 9 10 13 13 12 6 5 13 13 10 13 11 12 13 13 14 14 13 15 18 16 13 7 5 9 4 5 8 9 8 7 10 10 10 9 8 6 7 8
6 6 8 10 9 11 13 13 11 4 5 9 12 12 16 11 10 13 13 13 14 12 13 13 10 6 7 1 8 5 3 8 9 10 8 9 10 9 7 8 7 7 7
Wind_Direction
19 338 347 321 332 330 331 326 318 315 309 302 292 293 292 290 300 299 292 205 192 188 204 244 279 295 302 297 302 285 260 253 237 225 216 214 210 209 205 205 203 205 203
4 323 322 340 316 325 333 311 313 309 300 298 292 284 277 276 273 268 271 272 175 189 206 220 239 265 285 296 288 285 266 249 245 241 225 218 215 211 211 209 203 202 205
351 335 324 310 323 346 311 310 312 305 300 300 298 287 283 270 256 254 270 274 272 205 211 216 226 239 258 274 285 280 271 269 250 242 240 225 215 213 215 216 208 205 202
306 308 320 321 344 314 311 320 315 316 319 309 301 294 292 292 292 282 261 280 279 286 244 221 225 236 249 256 273 278 267 268 267 248 233 231 226 219 217 220 219 211 204
307 312 307 324 332 309 311 315 323 325 304 302 295 281 278 276 277 276 283 263 269 291 288 288 297 286 237 240 257 263 259 262 265 265 241 228 227 228 225 221 221 220 212
310 320 317 313 317 310 313 331 315 302 310 303 317 318 298 292 299 273 276 278 283 274 280 279 281 281 255 231 240 248 247 254 260 262 256 229 221 226 230 228 225 222 217
322 318 302 322 313 310 330 301 300 316 300 314 319 301 305 300 260 262 276 273 320 314 303 289 270 268 273 214 213 226 230 250 263 255 238 236 220 214 224 228 224 216 216
294 298 328 314 315 311 304 296 320 312 300 291 310 306 287 284 269 14 11 320 34 335 302 314 328 308 291 218 228 243 241 255 255 256 243 224 240 235 225 231 231 218 212
307 313 304 307 324 318 305 336 337 314 307 303 298 285 297 307 331 308 316 248 310 290 280 297 300 283 290 300 174 212 22 305 271 267 259 237 232 243 238 238 208 240 216
305 280 303 329 321 330 319 303 285 292 287 298 304 299 306 305 303 301 317 345 8 332 305 302 298 322 288 297 33 49 42 8 360 336 304 286 263 247 242 234 237 207 264
328 312 329 330 342 305 311 302 303 302 294 297 295 291 287 278 276 271 288 295 318 293 330 324 316 294 296 312 346 67 52 30 18 7 340 299 266 256 242 234 236 247 68
317 335 339 340 311 308 322 303 297 300 288 284 290 269 258 273 295 307 313 301 309 310 321 336 316 309 308 305 76 71 55 49 44 34 21 11 293 250 234 216 226 236 42
323 327 341 318 302 316 313 309 314 296 287 295 289 276 250 243 230 250 259 276 288 309 306 300 352 334 313 313 73 78 60 65 58 48 45 40 23 235 206 199 219 226 187
328 335 319 305 315 322 309 314 295 280 289 299 286 267 270 248 247 252 248 244 270 282 282 287 25 358 26 76 83 68 57 73 71 64 53 56 51 53 71 63 80 129 141
331 322 318 323 306 319 314 298 286 302 304 288 280 276 276 267 252 255 233 231 241 264 287 287 346 12 61 74 81 74 65 68 72 74 67 61 67 64 62 70 69 80 90
326 301 325 320 332 318 296 292 291 296 294 278 269 262 260 255 244 241 237 238 232 236 253 25 3 32 94 77 74 72 72 70 67 73 73 68 67 67 70 70 71 73 76
304 322 326 333 317 295 297 296 300 298 288 281 273 263 268 246 238 228 224 221 212 207 221 69 23 32 73 93 75 69 66 70 68 70 72 70 68 69 69 68 69 76 77
322 329 333 327 305 302 309 307 303 299 300 301 292 283 272 257 237 230 202 207 205 182 136 105 26 65 66 69 85 80 75 70 73 75 78 78 75 77 78 79 78 72 66
335 338 332 312 303 298 298 309 298 304 320 337 339 302 298 312 294 232 188 178 152 138 97 113 105 86 82 83 98 82 77 75 79 77 78 80 81 81 82 81 86 85 76
336 321 320 302 292 304 321 329 342 354 6 347 342 324 311 323 268 279 153 159 146 124 115 107 102 98 94 65 70 98 91 77 79 83 83 88 84 80 82 85 82 81 83
312 302 313 298 306 351 13 349 2 12 354 340 317 303 289 272 252 278 158 137 123 122 125 118 114 94 80 90 107 101 101 117 117 110 125 108 99 93 87 80 82 81 82
3 318 324 301 29 20 2 348 340 342 353 334 332 336 15 49 167 154 131 134 140 140 133 122 115 106 96 97 60 102 96 101 104 122 100 91 92 82 79 79 88 89 84
3 350 351 19 35 54 9 350 340 316 321 339 339 19 44 41 68 91 97 107 105 113 125 132 123 123 123 137 133 125 140 153 109 125 104 97 96 92 96 93 90 88 90
338 347 34 31 39 56 7 351 320 276 110 66 61 68 72 63 77 89 91 92 92 96 108 105 114 128 142 179 170 187 99 107 106 91 101 100 99 101 102 94 85 96 94
7 357 34 44 51 48 10 5 348 336 42 71 64 70 84 82 78 87 95 92 90 86 88 98 101 131 186 220 304 134 139 111 106 104 102 108 111 114 111 109 111 104 103
20 46 49 50 45 48 27 360 356 341 68 85 86 75 54 89 87 94 97 102 101 101 105 112 125 154 213 123 342 316 265 131 126 114 117 115 121 131 107 119 138 144 122